Location: Colonia Mina de C?rbuni
(46.1667°N, 22.7167°E)
Time: 07:33:31
(UTC+00:00)

Tiros 1 - Pass Details

Date: 29 April 2024
Orbit: 624 x 657 km, 48.4° (Epoch: 26 May)

Event Time Altitude Azimuth Distance (km) Brightness Sun altitude
Rises 21:21:51 0° 270° (W) 2,947 10.8 -27.3°
Reaches altitude 10° 21:24:12 10° 273° (W) 2,032 9.9 -27.4°
Enters shadow 21:27:36 45° 294° (WNW) 868 7.9 -27.6°
